AUA147 LDZA-LOWG

Flight info

Callsign AUA147
Flight time 0h 24m
Altitude 14000
Route PETOV DCT MIRSO DCT GOLVA GOLVA2M
Aircraft B737/M-SDE2E3FGHIRWXY/LB1

Departure

Time 2026-04-21 15:53
Airport Zagreb Franjo Tuđman International Airport (LDZA)

Arrival

Time 2026-04-21 16:17
Airport Graz Airport (LOWG)
Time Latitude Longitude Altitude Speed Heading
2026-04-21 15:38 45.74007 16.07604 358 ft 0 kts 136°
2026-04-21 15:45 45.74008 16.07604 358 ft 1 kts 136°
2026-04-21 15:45 45.74019 16.07588 360 ft 2 kts 136°
2026-04-21 15:46 45.74031 16.07572 361 ft 2 kts 136°
2026-04-21 15:46 45.74042 16.07555 360 ft 2 kts 113°
2026-04-21 15:46 45.74044 16.07535 360 ft 1 kts 56°
2026-04-21 15:46 45.74042 16.07530 364 ft 0 kts 50°
2026-04-21 15:47 45.74067 16.07570 360 ft 21 kts 47°
2026-04-21 15:48 45.74145 16.07642 362 ft 20 kts 28°
2026-04-21 15:48 45.74255 16.07762 358 ft 20 kts 47°
2026-04-21 15:48 45.74327 16.07873 360 ft 8 kts 45°
2026-04-21 15:48 45.74373 16.07907 358 ft 8 kts 358°
2026-04-21 15:49 45.74412 16.07871 361 ft 6 kts 314°
2026-04-21 15:49 45.74424 16.07854 358 ft 2 kts 315°
2026-04-21 15:49 45.74438 16.07835 358 ft 7 kts 318°
2026-04-21 15:49 45.74498 16.07747 358 ft 13 kts 319°
2026-04-21 15:50 45.74574 16.07714 360 ft 11 kts 29°
2026-04-21 15:50 45.74636 16.07793 361 ft 13 kts 46°
2026-04-21 15:50 45.74695 16.07887 358 ft 14 kts 48°
2026-04-21 15:50 45.74765 16.07992 361 ft 15 kts 46°
2026-04-21 15:51 45.74830 16.08076 359 ft 11 kts 16°
2026-04-21 15:51 45.74894 16.08023 362 ft 11 kts 317°
2026-04-21 15:51 45.74944 16.07944 357 ft 11 kts 296°
2026-04-21 15:51 45.74929 16.07854 359 ft 7 kts 234°
2026-04-21 15:52 45.74928 16.07852 359 ft 0 kts 233°
2026-04-21 15:52 45.74760 16.07593 357 ft 77 kts 227°
2026-04-21 15:52 45.74212 16.06757 363 ft 150 kts 227°
2026-04-21 15:52 45.73429 16.05489 811 ft 176 kts 226°
2026-04-21 15:53 45.72648 16.04213 1974 ft 167 kts 227°
2026-04-21 15:53 45.71925 16.03046 2859 ft 164 kts 227°
2026-04-21 15:53 45.71164 16.01813 3679 ft 167 kts 227°
2026-04-21 15:53 45.70381 16.00549 4471 ft 171 kts 227°
2026-04-21 15:54 45.69584 15.99260 5268 ft 174 kts 227°
2026-04-21 15:54 45.68781 15.97958 6041 ft 176 kts 227°
2026-04-21 15:54 45.68041 15.96762 6713 ft 178 kts 226°
2026-04-21 15:54 45.67215 15.95424 7441 ft 181 kts 227°
2026-04-21 15:55 45.66541 15.93909 8200 ft 182 kts 246°
2026-04-21 15:55 45.66273 15.92650 8702 ft 188 kts 258°
2026-04-21 15:55 45.66231 15.90659 8997 ft 215 kts 277°
2026-04-21 15:55 45.66686 15.88626 9216 ft 240 kts 297°
2026-04-21 15:56 45.67812 15.86707 9445 ft 266 kts 323°
2026-04-21 15:56 45.69545 15.85601 9788 ft 289 kts 349°
2026-04-21 15:56 45.71584 15.85641 9888 ft 295 kts
2026-04-21 15:56 45.73622 15.86139 9993 ft 299 kts 11°
2026-04-21 15:57 45.75686 15.86679 9999 ft 302 kts 10°
2026-04-21 15:57 45.77644 15.87166 9991 ft 301 kts
2026-04-21 15:57 45.79709 15.87645 9992 ft 299 kts
2026-04-21 15:57 45.81459 15.88027 9994 ft 298 kts
2026-04-21 15:58 45.82842 15.88318 10000 ft 298 kts
2026-04-21 15:58 45.84953 15.88748 10001 ft 298 kts
2026-04-21 15:58 45.86930 15.89141 10009 ft 299 kts
2026-04-21 15:58 45.88993 15.89546 10004 ft 300 kts
2026-04-21 15:59 45.90940 15.89923 10000 ft 300 kts
2026-04-21 15:59 45.93043 15.90327 10006 ft 301 kts
2026-04-21 15:59 45.95124 15.90726 10019 ft 302 kts
2026-04-21 15:59 45.97076 15.91099 9997 ft 302 kts
2026-04-21 16:00 45.99132 15.91491 9995 ft 303 kts
2026-04-21 16:00 46.01219 15.91889 10007 ft 302 kts
2026-04-21 16:00 46.03186 15.92262 10001 ft 302 kts
2026-04-21 16:00 46.05270 15.92660 10003 ft 302 kts
2026-04-21 16:01 46.07354 15.93060 9999 ft 302 kts
2026-04-21 16:01 46.09305 15.93434 10001 ft 301 kts
2026-04-21 16:01 46.11383 15.93831 10014 ft 301 kts
2026-04-21 16:01 46.13462 15.94229 10005 ft 301 kts
2026-04-21 16:02 46.15533 15.94626 10006 ft 300 kts
2026-04-21 16:02 46.17608 15.95024 10003 ft 301 kts
2026-04-21 16:02 46.19559 15.95399 9994 ft 301 kts
2026-04-21 16:02 46.21633 15.95797 9990 ft 300 kts
2026-04-21 16:03 46.23727 15.96200 10002 ft 300 kts
2026-04-21 16:03 46.25792 15.96598 9995 ft 300 kts
2026-04-21 16:03 46.27835 15.96991 10000 ft 300 kts
2026-04-21 16:03 46.29776 15.97347 10000 ft 300 kts
2026-04-21 16:04 46.31853 15.96907 10014 ft 299 kts 338°
2026-04-21 16:04 46.33706 15.95562 10015 ft 299 kts 330°
2026-04-21 16:04 46.35518 15.94076 10009 ft 300 kts 329°
2026-04-21 16:04 46.37329 15.92573 10006 ft 300 kts 329°
2026-04-21 16:05 46.39149 15.91071 10004 ft 301 kts 330°
2026-04-21 16:05 46.40837 15.89687 9996 ft 301 kts 330°
2026-04-21 16:05 46.42688 15.88181 10006 ft 301 kts 330°
2026-04-21 16:05 46.44405 15.86790 10003 ft 301 kts 330°
2026-04-21 16:06 46.46190 15.85346 9989 ft 295 kts 330°
2026-04-21 16:06 46.47988 15.83890 9988 ft 291 kts 330°
2026-04-21 16:06 46.49637 15.82552 10002 ft 288 kts 330°
2026-04-21 16:06 46.51280 15.81217 9984 ft 288 kts 330°
2026-04-21 16:07 46.53066 15.79765 9651 ft 297 kts 330°
2026-04-21 16:07 46.54868 15.78301 9383 ft 297 kts 330°
2026-04-21 16:07 46.56661 15.76839 9071 ft 294 kts 330°
2026-04-21 16:07 46.58168 15.75610 9050 ft 280 kts 330°
2026-04-21 16:08 46.61278 15.73075 8839 ft 247 kts 330°
2026-04-21 16:08 46.62636 15.71969 8703 ft 230 kts 330°
2026-04-21 16:08 46.63994 15.70857 8557 ft 213 kts 329°
2026-04-21 16:09 46.65206 15.69865 8354 ft 201 kts 329°
2026-04-21 16:09 46.66361 15.68922 7986 ft 200 kts 329°
2026-04-21 16:09 46.67570 15.67933 7566 ft 199 kts 329°
2026-04-21 16:09 46.68774 15.66946 7169 ft 197 kts 329°
2026-04-21 16:10 46.69668 15.66213 6868 ft 196 kts 329°
2026-04-21 16:10 46.70875 15.65231 6442 ft 195 kts 332°
2026-04-21 16:10 46.72144 15.64532 6061 ft 194 kts 342°
2026-04-21 16:10 46.73402 15.63971 5929 ft 196 kts 342°
2026-04-21 16:11 46.74629 15.63419 5785 ft 196 kts 342°
2026-04-21 16:11 46.75916 15.62827 5659 ft 191 kts 342°
2026-04-21 16:11 46.77171 15.62244 5581 ft 189 kts 341°
2026-04-21 16:11 46.78431 15.61652 5534 ft 193 kts 341°
2026-04-21 16:12 46.79284 15.61252 5470 ft 195 kts 342°
2026-04-21 16:12 46.80706 15.59776 5179 ft 189 kts 290°
2026-04-21 16:12 46.81007 15.58113 5044 ft 187 kts 280°
2026-04-21 16:12 46.81299 15.56218 4832 ft 192 kts 281°
2026-04-21 16:13 46.81595 15.54324 4583 ft 190 kts 281°
2026-04-21 16:13 46.81866 15.52603 4365 ft 185 kts 281°
2026-04-21 16:13 46.82148 15.50788 4152 ft 181 kts 281°
2026-04-21 16:13 46.82581 15.49070 3885 ft 183 kts 310°
2026-04-21 16:14 46.83660 15.48264 3940 ft 207 kts 351°
2026-04-21 16:14 46.85065 15.47888 3608 ft 227 kts 347°
2026-04-21 16:14 46.86591 15.47427 3303 ft 221 kts 349°
2026-04-21 16:14 46.88063 15.47008 3000 ft 211 kts 349°
2026-04-21 16:15 46.89469 15.46620 2742 ft 201 kts 349°
2026-04-21 16:15 46.90694 15.46285 2500 ft 194 kts 349°
2026-04-21 16:15 46.91991 15.45927 2253 ft 186 kts 349°
2026-04-21 16:15 46.93235 15.45583 2003 ft 179 kts 349°
2026-04-21 16:16 46.94469 15.45239 1726 ft 183 kts 348°
2026-04-21 16:16 46.95703 15.44883 1563 ft 176 kts 348°
2026-04-21 16:16 46.96762 15.44589 1455 ft 158 kts 347°
2026-04-21 16:16 46.97800 15.44324 1131 ft 148 kts 347°
2026-04-21 16:17 46.98692 15.44062 1100 ft 104 kts 352°
2026-04-21 16:17 46.99103 15.43945 1102 ft 24 kts 353°
2026-04-21 16:17 46.99225 15.43944 1108 ft 12 kts 17°
2026-04-21 16:17 46.99327 15.44077 1110 ft 27 kts 46°
2026-04-21 16:18 46.99431 15.44235 1108 ft 15 kts 41°
2026-04-21 16:18 46.99509 15.44254 1106 ft 10 kts 353°
2026-04-21 16:18 46.99536 15.44247 1111 ft 5 kts 348°
2026-04-21 16:18 46.99562 15.44241 1109 ft 0 kts 358°
2026-04-21 16:19 46.99563 15.44249 1108 ft 1 kts 77°
2026-04-21 16:19 46.99549 15.44302 1110 ft 4 kts 117°
2026-04-21 16:19 46.99539 15.44324 1108 ft 0 kts 125°